Location: Baia Mare
(47.6567°N, 23.5850°E)
Time: 17:00:45
(UTC+03:00)

ISS - Pass Details

Date: 04 August 2018
Orbit: 402 x 408 km, 51.6° (Epoch: 23 July)

Event Time Altitude Azimuth Distance (km) Brightness Sun altitude
Rises 23:00:11 0° 288° (WNW) 2,323 1.0 -16.9°
Reaches altitude 10° 23:02:34 10° 272° (W) 1,461 -0.5 -17.2°
Maximum altitude 23:05:08 21° 220° (SW) 957 -2.1 -17.4°
Enters shadow 23:05:18 21° 215° (SW) 960 -2.1 -17.4°
